Wetbulb
42.60 41.42 42.51 42.65 43.52 43.87 44.59 43.70 43.56 44.98 46.71 46.72 46.63 46.58 46.60 46.86 46.85 46.56 46.48 46.86 47.73 48.40 49.00 48.95 49.20 48.96 48.63
41.20 41.62 40.31 41.40 41.02 40.92 40.42 42.78 44.08 42.40 44.21 44.56 44.92 45.00 45.04 44.88 44.96 45.15 45.17 45.43 45.92 46.33 46.19 46.05 46.53 46.93 47.55
40.05 40.85 40.01 38.01 37.83 38.89 38.79 39.19 40.75 40.13 41.18 41.63 41.72 42.02 42.62 43.83 44.16 44.21 44.38 44.76 43.91 43.34 43.59 44.04 44.59 45.05 45.60
38.98 39.16 38.93 37.72 37.30 37.32 39.87 40.83 39.62 39.31 38.45 36.95 37.36 37.69 38.46 39.46 39.83 38.76 38.53 39.42 40.86 41.63 42.14 42.18 42.21 42.50 43.02
38.09 38.38 38.28 38.16 36.24 36.53 35.71 36.35 37.89 36.27 36.34 37.63 36.94 37.84 38.44 37.38 36.99 36.60 37.06 37.84 38.66 39.61 40.30 40.40 40.40 40.91 41.43
37.26 35.89 35.51 34.82 35.42 34.09 33.50 32.62 32.03 36.04 33.81 34.15 36.14 34.79 35.99 36.30 34.85 34.78 35.89 36.84 37.34 37.87 38.19 38.94 39.99 40.57 40.99
33.86 33.66 33.01 33.55 33.01 32.20 32.33 32.03 31.53 33.66 32.27 31.28 34.32 33.01 35.86 35.24 34.05 34.79 35.83 36.80 37.69 38.23 38.71 39.35 39.91 40.55 41.02
34.86 34.60 34.60 35.11 34.21 33.22 32.69 32.08 32.82 33.60 32.59 28.96 33.79 32.68 35.37 36.04 32.93 33.71 34.95 36.14 37.12 37.84 38.72 39.34 39.72 40.17 40.29
31.50 31.33 31.44 31.54 32.61 33.13 31.25 29.62 28.84 30.26 32.28 29.85 32.01 31.22 33.54 34.03 35.16 32.87 33.93 34.36 35.28 36.33 38.10 38.85 39.06 39.50 39.35
30.77 29.83 29.27 30.05 29.97 31.18 31.25 28.38 28.38 29.13 31.01 29.00 29.82 29.80 29.72 34.72 34.20 34.72 35.09 34.13 33.26 34.42 36.00 36.54 37.20 36.60 36.55
28.84 29.55 30.05 30.63 31.27 31.40 30.83 30.54 29.05 28.95 31.06 30.66 28.72 29.29 29.19 29.27 31.76 33.65 33.81 33.70 34.05 34.18 34.23 34.74 35.59 36.08 34.98
27.66 28.29 28.90 29.83 30.67 30.58 29.82 30.30 30.66 29.21 31.03 30.06 27.70 27.51 26.91 25.73 26.73 31.77 32.83 33.40 33.32 32.78 33.47 33.77 34.09 34.38 35.24
27.30 28.45 29.53 30.32 29.06 29.14 29.60 29.60 29.19 29.69 29.76 29.41 28.11 28.33 26.36 24.58 26.10 27.31 27.17 30.58 32.52 32.41 32.12 32.53 32.29 32.98 32.10
27.77 28.55 29.07 28.88 28.42 29.55 27.92 28.75 27.57 28.12 29.89 30.14 29.35 28.09 26.13 26.75 26.46 25.20 27.26 25.97 31.23 31.47 31.89 31.52 31.44 31.90 32.07
27.20 27.13 27.14 27.61 27.84 28.85 27.88 27.21 25.34 25.93 27.08 28.90 29.42 28.75 28.40 27.12 24.77 26.39 26.85 28.25 30.96 31.22 29.15 28.02 30.73 32.05 31.99
26.75 26.47 25.74 25.99 25.99 26.36 26.27 25.63 24.86 25.32 25.55 26.85 26.70 25.81 26.29 28.73 29.40 26.36 28.09 29.10 30.61 30.68 29.18 27.20 27.84 31.65 32.45
25.20 25.33 25.28 24.78 23.93 23.99 24.67 24.37 23.69 24.33 25.21 26.33 25.52 23.39 20.90 21.47 28.48 31.19 27.70 28.67 29.04 28.94 30.17 29.76 28.92 30.69 32.01
MSLP
1022.06 1022.41 1022.36 1022.19 1021.98 1021.75 1021.53 1021.34 1021.16 1021.02 1020.80 1020.55 1020.43 1020.39 1020.51 1020.66 1020.92 1020.98 1021.15 1021.13 1021.14 1021.74 1021.68 1021.62 1021.69 1022.05 1022.19
1022.23 1022.46 1022.70 1022.53 1022.40 1022.11 1022.06 1021.53 1021.13 1021.33 1021.13 1020.96 1020.84 1020.77 1020.73 1020.74 1020.87 1020.89 1021.09 1021.21 1021.37 1021.58 1021.62 1021.71 1021.88 1021.96 1022.02
1022.25 1022.67 1022.77 1022.98 1022.68 1022.55 1022.33 1022.05 1021.60 1021.42 1021.16 1021.07 1020.96 1020.81 1020.76 1020.78 1020.77 1020.91 1020.98 1021.18 1021.39 1021.52 1021.60 1021.80 1021.89 1021.87 1021.91
1022.49 1022.55 1022.76 1022.96 1022.86 1022.43 1021.64 1021.58 1021.25 1021.21 1021.14 1021.23 1021.22 1021.27 1021.20 1021.15 1021.13 1021.25 1021.37 1021.41 1021.39 1021.33 1021.43 1021.63 1021.78 1021.85 1021.89
1022.39 1022.40 1022.38 1022.33 1022.39 1022.38 1021.97 1021.58 1021.26 1021.63 1021.14 1020.79 1021.03 1020.91 1020.85 1021.06 1021.14 1021.31 1021.43 1021.51 1021.41 1021.35 1021.44 1021.43 1021.47 1021.69 1021.58
1022.55 1022.36 1022.44 1022.67 1022.60 1022.56 1022.33 1021.98 1021.49 1021.92 1021.58 1020.98 1020.95 1020.84 1020.75 1020.83 1021.11 1021.40 1021.30 1021.20 1021.15 1021.10 1021.06 1021.07 1021.10 1021.11 1021.15
1022.72 1022.80 1022.82 1022.95 1023.23 1023.07 1022.80 1022.62 1022.22 1022.04 1022.22 1021.25 1021.24 1020.90 1020.72 1020.80 1021.06 1021.13 1021.03 1020.92 1020.85 1020.83 1020.85 1020.88 1020.90 1020.88 1020.79
1023.23 1023.33 1023.31 1023.25 1023.25 1023.27 1023.12 1022.95 1022.51 1022.21 1022.60 1021.83 1021.36 1021.01 1020.70 1020.65 1021.06 1021.12 1020.92 1020.81 1020.70 1020.61 1020.50 1020.48 1020.50 1020.45 1020.39
1024.01 1023.93 1023.81 1023.69 1023.50 1023.16 1023.09 1022.97 1022.41 1022.17 1022.51 1022.43 1021.67 1021.35 1020.77 1020.54 1020.60 1020.97 1020.86 1020.70 1020.57 1020.42 1020.12 1020.05 1020.04 1020.06 1020.01
1023.59 1023.68 1023.77 1023.69 1023.78 1023.40 1023.29 1023.28 1022.97 1022.53 1022.70 1022.83 1022.24 1022.06 1021.09 1020.37 1020.44 1020.37 1020.24 1020.24 1020.41 1020.23 1020.06 1020.05 1020.05 1020.07 1019.95
1023.60 1023.57 1023.53 1023.55 1023.50 1023.61 1023.66 1023.65 1023.42 1023.11 1022.94 1023.07 1022.94 1022.61 1022.22 1021.41 1020.67 1020.28 1020.19 1020.02 1019.90 1019.79 1019.71 1019.82 1019.88 1019.90 1019.72
1023.55 1023.37 1023.40 1023.50 1023.57 1023.68 1023.79 1023.73 1023.58 1023.65 1023.34 1023.58 1023.37 1023.08 1022.68 1022.10 1021.13 1020.29 1020.10 1020.03 1019.91 1019.73 1019.61 1019.48 1019.43 1019.40 1019.28
1023.31 1023.34 1023.46 1023.55 1023.95 1023.75 1023.68 1023.58 1023.53 1023.24 1023.20 1023.33 1023.36 1023.07 1022.95 1022.36 1021.35 1020.82 1020.69 1019.89 1019.78 1019.68 1019.53 1019.28 1019.09 1018.88 1018.75
1023.18 1023.25 1023.30 1023.47 1023.40 1023.26 1023.22 1023.02 1022.86 1022.40 1022.58 1022.73 1022.79 1022.78 1022.33 1021.88 1021.47 1020.76 1020.64 1020.24 1019.29 1019.23 1019.12 1018.88 1018.67 1018.38 1018.13
1023.08 1022.98 1022.93 1022.94 1022.92 1022.94 1022.92 1022.87 1022.61 1022.09 1021.85 1021.85 1022.01 1022.05 1021.71 1021.51 1020.88 1020.09 1019.43 1019.08 1018.81 1018.62 1018.64 1018.24 1017.79 1017.52 1017.25
1022.89 1022.89 1022.84 1022.81 1022.77 1022.75 1022.71 1022.48 1022.09 1021.68 1021.39 1021.26 1021.26 1021.17 1020.74 1019.81 1019.68 1019.03 1018.68 1018.19 1018.01 1017.94 1017.90 1017.53 1016.70 1016.56 1016.22
1022.91 1022.83 1022.80 1022.77 1022.69 1022.40 1022.17 1021.94 1021.61 1021.31 1020.97 1020.88 1020.79 1020.66 1020.11 1019.00 1018.11 1018.21 1018.15 1017.85 1017.61 1017.18 1016.89 1016.46 1015.78 1015.17 1015.19
Wind_Speed
1 3 3 5 4 5 5 4 4 13 12 12 11 10 9 8 6 3 1 2 2 7 9 7 8 7 8
2 1 2 5 5 5 5 4 5 7 9 10 9 8 6 4 3 4 3 4 6 8 4 5 7 9 11
1 1 1 3 3 3 4 4 4 6 6 6 8 8 8 7 6 4 5 8 3 4 5 8 10 11 13
1 1 1 1 2 4 2 2 4 4 3 4 5 4 5 5 4 4 4 4 5 6 8 10 11 12 13
1 2 2 2 3 3 4 4 2 4 4 3 4 3 3 4 5 6 8 10 11 12 13 14 14 14 14
2 3 1 2 2 3 4 4 3 3 6 6 5 6 4 4 5 8 11 11 12 13 14 14 13 13 13
3 2 2 3 3 4 3 4 4 5 6 5 3 4 3 4 5 8 9 9 10 11 13 13 13 14 15
2 2 2 2 3 3 5 5 5 1 3 4 3 5 4 5 2 6 6 6 10 12 12 13 14 15 14
3 4 4 4 5 4 4 3 4 1 1 3 3 6 5 3 1 2 5 7 8 9 11 13 14 15 11
3 3 3 0 2 4 2 3 3 3 3 4 5 5 5 1 2 4 5 5 7 10 10 10 11 5 7
3 2 1 1 1 1 1 2 3 3 3 2 3 4 3 5 6 5 6 5 6 7 9 13 14 13 9
3 2 2 2 2 2 3 4 4 6 7 3 4 4 5 6 6 3 5 7 7 6 6 8 12 15 18
3 3 2 2 3 4 4 5 7 8 7 8 7 7 6 6 8 8 8 5 8 8 7 7 7 7 8
3 3 3 3 4 3 4 4 6 6 4 6 8 8 8 9 9 10 9 7 4 7 7 8 9 9 9
4 4 4 4 5 4 4 5 6 6 5 4 7 9 9 10 10 10 11 10 8 7 8 9 9 8 10
5 5 5 5 5 5 6 6 7 7 7 6 5 6 8 11 19 11 9 8 7 7 8 9 10 8 10
5 5 5 6 7 6 6 6 7 8 7 6 6 7 9 10 7 19 9 8 8 9 8 9 12 10 9
Wind_Direction
40 11 312 337 334 351 341 8 15 12 17 31 40 52 64 67 63 64 303 312 342 270 275 298 285 299 292
64 354 314 336 330 338 336 334 336 4 359 9 9 11 3 350 287 271 261 270 271 278 331 323 300 286 278
165 247 319 357 333 318 321 340 333 336 353 11 11 2 358 360 348 331 289 262 211 226 251 263 272 275 277
214 244 272 286 277 320 314 340 2 359 12 12 348 356 353 345 342 11 348 322 282 269 265 263 265 267 268
241 263 265 286 338 332 305 329 0 357 339 348 333 320 286 256 275 270 276 276 276 271 266 266 263 256 256
249 270 283 316 315 342 333 335 320 74 338 318 327 307 302 290 318 289 278 275 272 266 264 263 261 256 252
295 325 292 351 7 311 337 303 305 337 327 303 345 303 303 292 288 304 290 280 270 264 260 256 253 250 249
7 337 315 293 295 309 318 307 282 282 326 285 345 307 316 297 353 302 286 296 285 270 264 259 258 258 258
339 324 318 317 301 289 283 303 305 311 40 304 330 314 302 297 310 269 307 307 307 308 277 259 260 263 269
258 240 262 166 300 283 282 272 293 286 94 315 337 351 318 310 282 269 302 268 277 283 271 272 277 276 263
277 257 238 210 210 347 309 257 264 268 44 326 294 310 279 302 305 299 307 298 294 299 276 255 256 250 258
263 251 255 261 256 285 288 276 265 266 294 296 270 271 291 291 279 291 297 303 294 288 291 283 272 260 253
252 256 266 295 285 252 241 245 254 256 250 237 243 262 252 254 277 295 302 293 295 280 268 257 266 268 267
261 267 272 251 252 252 270 275 286 277 191 226 233 241 255 252 261 272 269 268 269 272 279 280 274 263 256
250 257 260 263 259 259 264 277 271 281 279 235 226 247 257 259 268 259 264 262 258 267 264 265 261 256 256
254 260 269 270 271 270 263 262 273 280 281 278 268 272 273 251 226 255 267 269 270 263 261 262 267 252 254
255 260 262 264 269 267 268 268 270 272 274 276 270 263 269 271 275 212 251 268 277 269 260 254 264 269 265